QPF
0.01 0.01 0.01 0.01 0.00 0.00 0.00 0.01 0.01 0.02 0.03 0.02 0.03 0.03 0.03 0.04 0.04 0.04 0.03 0.03 0.04 0.04 0.05 0.04 0.06 0.06 0.07 0.08 0.08 0.10 0.10 0.08 0.06 0.09 0.11 0.08 0.07 0.06 0.07 0.07 0.08 0.10 0.10
0.01 0.01 0.01 0.01 0.00 0.00 0.00 0.01 0.01 0.01 0.02 0.02 0.04 0.04 0.04 0.04 0.03 0.04 0.04 0.04 0.04 0.03 0.03 0.05 0.05 0.07 0.10 0.10 0.09 0.10 0.08 0.07 0.07 0.09 0.11 0.11 0.10 0.08 0.07 0.06 0.06 0.07 0.08
0.01 0.01 0.00 0.00 0.00 0.00 0.00 0.00 0.00 0.01 0.01 0.01 0.02 0.03 0.02 0.02 0.04 0.04 0.05 0.05 0.03 0.03 0.03 0.05 0.06 0.09 0.09 0.09 0.10 0.08 0.07 0.07 0.06 0.08 0.10 0.11 0.12 0.11 0.09 0.08 0.06 0.05 0.06
0.01 0.00 0.00 0.00 0.00 0.00 0.00 0.00 0.00 0.00 0.00 0.01 0.02 0.02 0.02 0.04 0.05 0.05 0.05 0.04 0.03 0.02 0.03 0.04 0.07 0.10 0.09 0.09 0.08 0.06 0.07 0.06 0.06 0.07 0.09 0.09 0.11 0.11 0.12 0.10 0.06 0.06 0.07
0.01 0.00 0.00 0.00 0.00 0.00 0.00 0.00 0.00 0.00 0.01 0.01 0.02 0.03 0.03 0.04 0.05 0.04 0.04 0.03 0.03 0.02 0.02 0.03 0.05 0.08 0.08 0.08 0.07 0.07 0.09 0.07 0.06 0.07 0.07 0.08 0.08 0.09 0.11 0.10 0.08 0.07 0.06
0.00 0.00 0.00 0.00 0.00 0.00 0.00 0.00 0.00 0.01 0.01 0.01 0.02 0.02 0.03 0.05 0.06 0.04 0.03 0.03 0.02 0.01 0.01 0.02 0.04 0.05 0.06 0.08 0.08 0.08 0.08 0.08 0.08 0.07 0.06 0.06 0.08 0.09 0.10 0.09 0.08 0.06 0.04
0.00 0.00 0.00 0.00 0.00 0.00 0.00 0.00 0.01 0.01 0.01 0.01 0.02 0.03 0.05 0.07 0.08 0.04 0.03 0.03 0.02 0.02 0.02 0.02 0.03 0.03 0.04 0.05 0.05 0.05 0.05 0.06 0.07 0.07 0.05 0.05 0.07 0.06 0.06 0.07 0.06 0.04 0.03
0.00 0.00 0.00 0.00 0.00 0.00 0.00 0.00 0.01 0.01 0.00 0.01 0.02 0.04 0.05 0.05 0.04 0.03 0.03 0.03 0.02 0.01 0.02 0.02 0.02 0.02 0.02 0.02 0.03 0.03 0.03 0.04 0.05 0.05 0.05 0.06 0.06 0.04 0.04 0.05 0.06 0.05 0.04
0.00 0.00 0.00 0.00 0.00 0.00 0.00 0.00 0.00 0.00 0.00 0.01 0.03 0.04 0.04 0.03 0.03 0.03 0.03 0.02 0.02 0.01 0.02 0.02 0.02 0.01 0.01 0.02 0.02 0.02 0.03 0.03 0.05 0.05 0.05 0.05 0.05 0.04 0.03 0.03 0.04 0.06 0.06
0.00 0.00 0.00 0.00 0.00 0.00 0.00 0.00 0.00 0.01 0.01 0.02 0.03 0.04 0.04 0.03 0.03 0.04 0.04 0.02 0.01 0.01 0.01 0.01 0.01 0.01 0.02 0.02 0.03 0.02 0.02 0.03 0.04 0.04 0.04 0.04 0.04 0.03 0.02 0.02 0.03 0.04 0.06
0.00 0.00 0.00 0.00 0.00 0.00 0.00 0.00 0.00 0.01 0.01 0.02 0.03 0.03 0.02 0.02 0.03 0.03 0.02 0.02 0.01 0.01 0.01 0.01 0.01 0.01 0.01 0.02 0.02 0.02 0.02 0.02 0.02 0.02 0.02 0.03 0.03 0.03 0.04 0.03 0.02 0.03 0.03
0.00 0.00 0.00 0.00 0.00 0.00 0.00 0.00 0.00 0.00 0.01 0.01 0.02 0.02 0.02 0.03 0.04 0.03 0.02 0.02 0.01 0.01 0.00 0.01 0.01 0.01 0.01 0.01 0.02 0.01 0.01 0.02 0.02 0.02 0.02 0.03 0.03 0.03 0.03 0.03 0.02 0.02 0.03
0.00 0.00 0.00 0.00 0.00 0.00 0.00 0.00 0.00 0.00 0.01 0.02 0.02 0.02 0.02 0.02 0.02 0.02 0.01 0.01 0.01 0.01 0.01 0.01 0.01 0.01 0.01 0.01 0.01 0.01 0.01 0.01 0.02 0.02 0.03 0.03 0.04 0.04 0.04 0.03 0.03 0.03 0.03
0.00 0.00 0.00 0.00 0.00 0.00 0.00 0.00 0.00 0.00 0.00 0.01 0.01 0.01 0.01 0.01 0.01 0.01 0.01 0.01 0.01 0.01 0.01 0.01 0.01 0.00 0.01 0.01 0.01 0.01 0.02 0.02 0.02 0.02 0.02 0.02 0.03 0.04 0.04 0.03 0.03 0.03 0.03
0.00 0.00 0.00 0.00 0.00 0.00 0.00 0.00 0.00 0.00 0.00 0.01 0.01 0.01 0.01 0.01 0.02 0.02 0.03 0.02 0.01 0.01 0.01 0.01 0.00 0.01 0.01 0.01 0.01 0.01 0.02 0.02 0.02 0.02 0.02 0.02 0.03 0.02 0.02 0.01 0.02 0.02 0.02
0.00 0.00 0.00 0.00 0.00 0.00 0.00 0.00 0.00 0.00 0.00 0.01 0.01 0.02 0.01 0.02 0.02 0.03 0.02 0.01 0.01 0.01 0.01 0.00 0.00 0.00 0.00 0.01 0.01 0.01 0.01 0.01 0.02 0.03 0.03 0.03 0.02 0.01 0.01 0.01 0.01 0.02 0.03
0.00 0.00 0.00 0.00 0.00 0.00 0.00 0.00 0.00 0.00 0.00 0.01 0.02 0.02 0.02 0.03 0.02 0.02 0.01 0.01 0.01 0.01 0.00 0.00 0.00 0.00 0.00 0.02 0.01 0.02 0.01 0.01 0.01 0.03 0.04 0.02 0.01 0.01 0.01 0.01 0.01 0.01 0.01
0.00 0.00 0.00 0.00 0.00 0.00 0.00 0.00 0.00 0.00 0.00 0.02 0.04 0.05 0.05 0.03 0.02 0.02 0.01 0.01 0.01 0.00 0.00 0.00 0.00 0.00 0.01 0.02 0.02 0.02 0.02 0.01 0.01 0.01 0.02 0.02 0.02 0.02 0.01 0.01 0.01 0.01 0.01
0.00 0.00 0.01 0.01 0.00 0.00 0.00 0.00 0.00 0.00 0.00 0.01 0.02 0.03 0.03 0.02 0.02 0.02 0.01 0.01 0.01 0.01 0.00 0.00 0.00 0.00 0.01 0.02 0.02 0.02 0.01 0.01 0.01 0.01 0.01 0.02 0.02 0.02 0.01 0.01 0.01 0.01 0.01
0.00 0.00 0.01 0.00 0.01 0.00 0.00 0.00 0.00 0.00 0.00 0.01 0.01 0.02 0.02 0.02 0.01 0.01 0.01 0.01 0.01 0.00 0.01 0.00 0.00 0.01 0.01 0.01 0.02 0.03 0.02 0.02 0.03 0.03 0.02 0.02 0.02 0.02 0.01 0.01 0.01 0.01 0.01
0.00 0.00 0.01 0.01 0.01 0.00 0.00 0.00 0.00 0.00 0.01 0.01 0.01 0.03 0.03 0.02 0.01 0.01 0.01 0.01 0.01 0.01 0.01 0.01 0.01 0.01 0.01 0.01 0.02 0.03 0.03 0.03 0.04 0.05 0.04 0.02 0.02 0.02 0.01 0.01 0.01 0.01 0.01
0.00 0.00 0.01 0.01 0.02 0.01 0.01 0.01 0.01 0.01 0.01 0.01 0.02 0.02 0.02 0.02 0.02 0.01 0.01 0.01 0.01 0.01 0.01 0.01 0.01 0.01 0.01 0.02 0.02 0.03 0.03 0.03 0.03 0.04 0.05 0.04 0.03 0.02 0.01 0.01 0.01 0.01 0.01
0.00 0.00 0.00 0.01 0.02 0.01 0.01 0.00 0.00 0.01 0.01 0.01 0.02 0.02 0.02 0.02 0.02 0.01 0.01 0.01 0.01 0.01 0.01 0.01 0.01 0.02 0.02 0.03 0.03 0.03 0.03 0.04 0.03 0.03 0.03 0.03 0.03 0.02 0.01 0.01 0.01 0.01 0.01
0.00 0.00 0.00 0.00 0.00 0.00 0.00 0.00 0.00 0.00 0.01 0.01 0.01 0.02 0.02 0.02 0.02 0.02 0.01 0.01 0.01 0.01 0.01 0.01 0.02 0.02 0.03 0.03 0.03 0.04 0.04 0.04 0.03 0.03 0.03 0.03 0.02 0.01 0.01 0.01 0.01 0.01 0.01
0.00 0.00 0.00 0.00 0.00 0.00 0.00 0.00 0.00 0.00 0.00 0.01 0.01 0.01 0.02 0.03 0.03 0.02 0.02 0.02 0.02 0.02 0.02 0.02 0.02 0.02 0.03 0.03 0.03 0.03 0.03 0.04 0.03 0.03 0.02 0.02 0.01 0.01 0.01 0.01 0.01 0.01 0.02
0.00 0.00 0.00 0.00 0.00 0.01 0.00 0.00 0.00 0.01 0.01 0.01 0.01 0.01 0.02 0.03 0.04 0.03 0.03 0.03 0.03 0.03 0.03 0.03 0.03 0.03 0.04 0.04 0.03 0.04 0.04 0.04 0.03 0.02 0.02 0.01 0.01 0.01 0.02 0.03 0.03 0.03 0.04
MSLP
1006.71 1006.83 1006.86 1006.83 1006.76 1006.72 1006.73 1006.84 1007.03 1007.30 1007.61 1007.94 1008.25 1008.52 1008.77 1009.00 1009.23 1009.49 1009.80 1010.16 1010.59 1011.07 1011.60 1012.17 1012.78 1013.42 1014.09 1014.76 1015.43 1016.06 1016.62 1017.08 1017.43 1017.65 1017.75 1017.77 1017.74 1017.69 1017.66 1017.68 1017.74 1017.82 1017.93
1006.70 1006.92 1007.04 1007.07 1007.03 1006.98 1006.97 1007.05 1007.23 1007.49 1007.83 1008.19 1008.54 1008.86 1009.13 1009.36 1009.58 1009.82 1010.10 1010.43 1010.84 1011.31 1011.84 1012.42 1013.02 1013.62 1014.22 1014.81 1015.36 1015.87 1016.33 1016.72 1017.04 1017.30 1017.50 1017.65 1017.78 1017.89 1018.01 1018.13 1018.25 1018.37 1018.46
1006.54 1006.90 1007.14 1007.25 1007.27 1007.25 1007.25 1007.31 1007.48 1007.74 1008.08 1008.46 1008.84 1009.17 1009.45 1009.68 1009.88 1010.08 1010.31 1010.60 1010.97 1011.42 1011.93 1012.48 1013.04 1013.59 1014.11 1014.58 1015.02 1015.41 1015.76 1016.09 1016.41 1016.71 1017.01 1017.31 1017.61 1017.91 1018.19 1018.45 1018.67 1018.84 1018.95
1006.21 1006.71 1007.09 1007.32 1007.43 1007.47 1007.50 1007.58 1007.75 1008.02 1008.37 1008.76 1009.15 1009.51 1009.79 1010.01 1010.19 1010.34 1010.53 1010.76 1011.08 1011.48 1011.94 1012.43 1012.94 1013.41 1013.84 1014.21 1014.53 1014.81 1015.08 1015.35 1015.65 1016.00 1016.39 1016.82 1017.27 1017.73 1018.17 1018.57 1018.90 1019.14 1019.30
1005.71 1006.35 1006.88 1007.25 1007.47 1007.60 1007.68 1007.80 1007.99 1008.28 1008.65 1009.07 1009.49 1009.86 1010.17 1010.39 1010.54 1010.67 1010.80 1010.98 1011.23 1011.55 1011.95 1012.38 1012.81 1013.21 1013.56 1013.84 1014.06 1014.25 1014.43 1014.65 1014.93 1015.30 1015.74 1016.25 1016.82 1017.40 1017.96 1018.46 1018.89 1019.22 1019.45
1005.09 1005.86 1006.53 1007.04 1007.38 1007.60 1007.76 1007.93 1008.16 1008.48 1008.89 1009.34 1009.80 1010.22 1010.55 1010.79 1010.94 1011.04 1011.13 1011.25 1011.44 1011.70 1012.02 1012.38 1012.75 1013.09 1013.36 1013.58 1013.73 1013.85 1013.97 1014.14 1014.39 1014.73 1015.18 1015.72 1016.33 1016.96 1017.59 1018.17 1018.66 1019.07 1019.37
1004.43 1005.31 1006.10 1006.73 1007.19 1007.50 1007.74 1007.96 1008.24 1008.61 1009.05 1009.56 1010.07 1010.53 1010.91 1011.18 1011.35 1011.45 1011.51 1011.59 1011.71 1011.91 1012.17 1012.47 1012.79 1013.08 1013.32 1013.49 1013.61 1013.69 1013.77 1013.89 1014.09 1014.39 1014.80 1015.30 1015.88 1016.51 1017.13 1017.73 1018.26 1018.72 1019.10
1003.81 1004.77 1005.65 1006.38 1006.93 1007.33 1007.64 1007.92 1008.25 1008.65 1009.14 1009.69 1010.26 1010.78 1011.22 1011.53 1011.73 1011.84 1011.89 1011.94 1012.02 1012.17 1012.38 1012.64 1012.92 1013.19 1013.42 1013.60 1013.71 1013.78 1013.84 1013.92 1014.07 1014.30 1014.63 1015.05 1015.55 1016.10 1016.68 1017.24 1017.77 1018.26 1018.69
1003.28 1004.29 1005.23 1006.03 1006.65 1007.12 1007.49 1007.82 1008.19 1008.63 1009.16 1009.76 1010.37 1010.95 1011.44 1011.81 1012.05 1012.18 1012.24 1012.28 1012.33 1012.45 1012.62 1012.86 1013.13 1013.41 1013.65 1013.84 1013.98 1014.06 1014.12 1014.19 1014.28 1014.44 1014.67 1014.99 1015.37 1015.82 1016.30 1016.80 1017.29 1017.79 1018.26
1002.85 1003.88 1004.87 1005.71 1006.39 1006.91 1007.32 1007.70 1008.10 1008.58 1009.14 1009.77 1010.42 1011.04 1011.58 1012.00 1012.28 1012.44 1012.53 1012.57 1012.62 1012.72 1012.88 1013.11 1013.38 1013.67 1013.94 1014.17 1014.34 1014.46 1014.54 1014.59 1014.66 1014.75 1014.89 1015.09 1015.36 1015.68 1016.06 1016.47 1016.92 1017.40 1017.89
1002.49 1003.54 1004.54 1005.42 1006.13 1006.69 1007.15 1007.56 1008.00 1008.50 1009.08 1009.73 1010.41 1011.06 1011.64 1012.10 1012.43 1012.64 1012.75 1012.82 1012.88 1012.98 1013.14 1013.37 1013.64 1013.95 1014.24 1014.51 1014.73 1014.88 1014.99 1015.05 1015.10 1015.15 1015.22 1015.34 1015.50 1015.72 1016.00 1016.34 1016.73 1017.17 1017.66
1002.15 1003.20 1004.21 1005.11 1005.85 1006.45 1006.95 1007.41 1007.87 1008.40 1009.01 1009.67 1010.37 1011.04 1011.65 1012.15 1012.52 1012.77 1012.93 1013.03 1013.12 1013.24 1013.40 1013.63 1013.91 1014.22 1014.54 1014.83 1015.08 1015.27 1015.40 1015.49 1015.54 1015.57 1015.61 1015.68 1015.78 1015.93 1016.13 1016.41 1016.74 1017.14 1017.60
1001.78 1002.82 1003.82 1004.73 1005.50 1006.15 1006.70 1007.20 1007.72 1008.28 1008.90 1009.58 1010.29 1010.98 1011.61 1012.14 1012.55 1012.86 1013.07 1013.22 1013.35 1013.50 1013.68 1013.91 1014.19 1014.50 1014.81 1015.11 1015.38 1015.59 1015.75 1015.86 1015.93 1015.98 1016.02 1016.07 1016.15 1016.26 1016.43 1016.66 1016.96 1017.31 1017.73
1001.33 1002.34 1003.33 1004.24 1005.04 1005.74 1006.35 1006.92 1007.49 1008.09 1008.74 1009.44 1010.16 1010.86 1011.51 1012.07 1012.53 1012.89 1013.17 1013.38 1013.57 1013.76 1013.97 1014.21 1014.49 1014.78 1015.08 1015.37 1015.63 1015.85 1016.02 1016.15 1016.26 1016.34 1016.41 1016.48 1016.58 1016.70 1016.86 1017.07 1017.33 1017.64 1018.00
1000.79 1001.75 1002.71 1003.62 1004.44 1005.19 1005.87 1006.51 1007.15 1007.81 1008.50 1009.22 1009.95 1010.67 1011.34 1011.93 1012.44 1012.86 1013.21 1013.50 1013.75 1013.99 1014.24 1014.51 1014.78 1015.06 1015.34 1015.60 1015.84 1016.05 1016.23 1016.39 1016.52 1016.64 1016.76 1016.89 1017.02 1017.17 1017.35 1017.55 1017.79 1018.06 1018.37
1000.18 1001.06 1001.97 1002.86 1003.70 1004.49 1005.24 1005.96 1006.67 1007.40 1008.14 1008.89 1009.64 1010.37 1011.06 1011.68 1012.24 1012.72 1013.14 1013.51 1013.85 1014.16 1014.46 1014.75 1015.03 1015.30 1015.56 1015.79 1016.01 1016.20 1016.38 1016.55 1016.72 1016.89 1017.06 1017.24 1017.43 1017.62 1017.83 1018.04 1018.26 1018.50 1018.75
999.53 1000.31 1001.14 1001.99 1002.83 1003.66 1004.47 1005.26 1006.05 1006.84 1007.63 1008.42 1009.19 1009.94 1010.64 1011.30 1011.90 1012.44 1012.93 1013.38 1013.79 1014.17 1014.53 1014.86 1015.17 1015.44 1015.68 1015.90 1016.10 1016.28 1016.46 1016.64 1016.84 1017.05 1017.27 1017.51 1017.75 1017.99 1018.22 1018.44 1018.65 1018.86 1019.05
998.89 999.54 1000.27 1001.06 1001.88 1002.73 1003.58 1004.43 1005.29 1006.14 1006.98 1007.81 1008.60 1009.36 1010.08 1010.76 1011.39 1011.97 1012.52 1013.03 1013.52 1013.97 1014.39 1014.77 1015.10 1015.40 1015.65 1015.87 1016.06 1016.24 1016.43 1016.63 1016.85 1017.10 1017.36 1017.64 1017.93 1018.20 1018.45 1018.68 1018.88 1019.06 1019.22
998.29 998.79 999.40 1000.11 1000.90 1001.74 1002.62 1003.52 1004.43 1005.33 1006.22 1007.07 1007.89 1008.66 1009.39 1010.07 1010.71 1011.32 1011.91 1012.46 1013.00 1013.51 1013.98 1014.41 1014.79 1015.11 1015.39 1015.63 1015.85 1016.05 1016.25 1016.47 1016.72 1017.00 1017.29 1017.60 1017.91 1018.21 1018.47 1018.70 1018.90 1019.06 1019.19
997.74 998.09 998.58 999.20 999.93 1000.75 1001.63 1002.57 1003.52 1004.46 1005.39 1006.27 1007.10 1007.88 1008.61 1009.28 1009.92 1010.53 1011.12 1011.69 1012.26 1012.80 1013.31 1013.78 1014.21 1014.58 1014.91 1015.19 1015.44 1015.68 1015.91 1016.17 1016.44 1016.74 1017.05 1017.38 1017.70 1018.00 1018.26 1018.49 1018.67 1018.82 1018.93
997.26 997.47 997.84 998.36 999.02 999.81 1000.68 1001.63 1002.60 1003.58 1004.53 1005.44 1006.29 1007.07 1007.79 1008.45 1009.06 1009.65 1010.23 1010.79 1011.35 1011.91 1012.44 1012.95 1013.41 1013.84 1014.22 1014.56 1014.87 1015.15 1015.43 1015.72 1016.02 1016.33 1016.65 1016.97 1017.28 1017.57 1017.82 1018.04 1018.21 1018.35 1018.46
996.85 996.94 997.20 997.63 998.23 998.96 999.81 1000.75 1001.73 1002.73 1003.71 1004.63 1005.49 1006.28 1006.99 1007.63 1008.23 1008.78 1009.33 1009.86 1010.40 1010.94 1011.48 1012.01 1012.51 1012.98 1013.42 1013.82 1014.19 1014.53 1014.86 1015.17 1015.49 1015.80 1016.11 1016.41 1016.70 1016.96 1017.19 1017.39 1017.55 1017.69 1017.80
996.54 996.54 996.71 997.06 997.58 998.26 999.07 999.98 1000.95 1001.95 1002.94 1003.88 1004.76 1005.55 1006.26 1006.89 1007.46 1007.99 1008.50 1009.00 1009.51 1010.02 1010.55 1011.09 1011.62 1012.13 1012.62 1013.08 1013.50 1013.89 1014.25 1014.59 1014.91 1015.20 1015.49 1015.75 1015.99 1016.21 1016.41 1016.58 1016.73 1016.86 1016.98
996.39 996.32 996.41 996.68 997.13 997.73 998.48 999.34 1000.29 1001.27 1002.26 1003.21 1004.09 1004.90 1005.62 1006.25 1006.81 1007.32 1007.80 1008.28 1008.75 1009.25 1009.77 1010.31 1010.85 1011.39 1011.92 1012.41 1012.88 1013.30 1013.68 1014.02 1014.32 1014.58 1014.82 1015.03 1015.21 1015.38 1015.53 1015.66 1015.79 1015.92 1016.05
996.44 996.32 996.36 996.55 996.91 997.42 998.08 998.87 999.75 1000.70 1001.65 1002.60 1003.49 1004.31 1005.04 1005.69 1006.26 1006.78 1007.25 1007.72 1008.18 1008.67 1009.18 1009.71 1010.26 1010.82 1011.37 1011.88 1012.36 1012.79 1013.17 1013.48 1013.74 1013.95 1014.12 1014.26 1014.38 1014.48 1014.58 1014.67 1014.78 1014.90 1015.03
996.76 996.61 996.58 996.69 996.94 997.35 997.90 998.57 999.36 1000.22 1001.13 1002.04 1002.92 1003.75 1004.50 1005.18 1005.78 1006.32 1006.82 1007.29 1007.77 1008.26 1008.77 1009.30 1009.85 1010.41 1010.95 1011.47 1011.94 1012.34 1012.68 1012.95 1013.15 1013.29 1013.38 1013.44 1013.48 1013.52 1013.56 1013.61 1013.69 1013.79 1013.92
Thickness
5813 5811 5807 5804 5800 5795 5790 5786 5783 5780 5777 5774 5771 5768 5767 5766 5766 5764 5762 5760 5759 5759 5759 5760 5757 5757 5757 5754 5754 5752 5750 5749 5750 5749 5746 5748 5750 5749 5748 5747 5748 5747 5745
5812 5810 5808 5805 5802 5797 5792 5789 5785 5782 5779 5776 5773 5770 5768 5767 5766 5764 5760 5760 5759 5759 5760 5758 5758 5757 5755 5753 5752 5750 5750 5751 5750 5747 5744 5740 5741 5743 5747 5745 5744 5745 5744
5815 5811 5809 5807 5805 5800 5796 5794 5789 5785 5781 5778 5776 5772 5768 5767 5766 5763 5761 5760 5760 5759 5758 5757 5757 5756 5756 5755 5752 5751 5749 5748 5750 5749 5745 5739 5735 5737 5740 5741 5742 5741 5741
5821 5816 5812 5808 5807 5805 5802 5796 5791 5786 5783 5779 5776 5772 5768 5765 5764 5763 5763 5761 5760 5759 5758 5757 5756 5755 5756 5754 5754 5754 5752 5749 5749 5749 5747 5745 5742 5736 5732 5735 5739 5739 5737
5825 5820 5817 5813 5811 5808 5804 5799 5793 5787 5784 5780 5776 5772 5770 5768 5767 5765 5762 5761 5761 5759 5759 5758 5756 5755 5755 5754 5753 5752 5751 5751 5750 5748 5747 5744 5743 5741 5734 5729 5731 5734 5735
5828 5824 5820 5816 5812 5810 5806 5801 5793 5788 5785 5781 5778 5773 5770 5767 5764 5763 5762 5762 5762 5761 5759 5758 5756 5755 5754 5753 5752 5751 5751 5749 5748 5748 5747 5744 5742 5739 5736 5730 5729 5729 5731
5829 5824 5818 5814 5810 5807 5805 5801 5795 5788 5785 5782 5779 5776 5772 5769 5765 5764 5763 5762 5763 5762 5758 5759 5756 5755 5753 5752 5751 5750 5749 5748 5746 5745 5745 5745 5743 5741 5738 5733 5730 5728 5727
5831 5825 5821 5816 5811 5808 5805 5801 5795 5790 5786 5783 5780 5778 5775 5772 5770 5767 5766 5764 5763 5762 5760 5758 5756 5754 5753 5753 5751 5750 5748 5746 5745 5744 5742 5741 5741 5740 5738 5733 5729 5724 5723
5830 5827 5823 5818 5813 5809 5806 5802 5797 5791 5788 5785 5781 5778 5775 5772 5770 5768 5766 5765 5763 5762 5759 5758 5756 5754 5752 5751 5750 5748 5746 5744 5744 5743 5741 5740 5739 5738 5736 5734 5730 5724 5717
5830 5827 5824 5819 5815 5812 5808 5804 5799 5793 5790 5787 5784 5780 5776 5773 5770 5769 5765 5763 5761 5760 5758 5757 5754 5752 5751 5749 5748 5747 5744 5742 5740 5739 5737 5735 5737 5735 5734 5732 5730 5727 5721
5828 5826 5824 5821 5817 5814 5809 5804 5800 5795 5791 5788 5784 5781 5777 5773 5770 5767 5765 5763 5761 5758 5757 5755 5753 5751 5749 5748 5745 5744 5742 5739 5737 5736 5734 5731 5731 5731 5730 5729 5727 5724 5720
5828 5826 5823 5819 5816 5812 5809 5804 5801 5796 5792 5789 5784 5780 5777 5773 5769 5766 5764 5762 5759 5758 5755 5753 5751 5749 5747 5745 5743 5741 5739 5737 5734 5732 5730 5728 5728 5725 5725 5723 5722 5720 5716
5822 5822 5819 5816 5812 5810 5807 5805 5801 5797 5793 5789 5784 5779 5776 5771 5768 5765 5762 5760 5758 5755 5754 5751 5748 5746 5744 5742 5740 5738 5736 5734 5732 5729 5727 5725 5723 5721 5721 5718 5718 5716 5714
5815 5815 5812 5810 5808 5806 5804 5801 5799 5797 5792 5788 5783 5778 5774 5770 5767 5763 5760 5758 5755 5753 5750 5748 5746 5744 5742 5740 5738 5735 5732 5730 5728 5726 5724 5722 5720 5717 5716 5715 5713 5712 5709
5809 5808 5807 5805 5804 5802 5800 5798 5796 5793 5790 5785 5780 5776 5772 5768 5764 5760 5757 5755 5753 5751 5748 5745 5743 5742 5740 5737 5734 5732 5729 5726 5724 5723 5721 5719 5715 5712 5710 5711 5709 5707 5704
5804 5804 5803 5801 5799 5797 5796 5794 5791 5788 5785 5781 5777 5773 5769 5765 5760 5757 5754 5751 5749 5747 5744 5742 5740 5738 5737 5731 5727 5726 5725 5722 5720 5718 5716 5714 5711 5707 5704 5702 5699 5698 5697
5800 5799 5798 5797 5796 5795 5794 5790 5786 5784 5780 5776 5773 5769 5765 5761 5757 5754 5751 5747 5745 5742 5740 5738 5736 5733 5729 5725 5722 5720 5720 5719 5716 5714 5712 5711 5708 5704 5702 5697 5693 5691 5688
5794 5795 5795 5794 5794 5793 5790 5787 5783 5779 5775 5771 5768 5765 5761 5757 5754 5750 5746 5743 5741 5738 5736 5733 5731 5728 5725 5720 5717 5715 5715 5714 5711 5709 5706 5704 5701 5699 5695 5694 5691 5688 5684
5791 5791 5791 5791 5789 5788 5785 5782 5778 5775 5771 5767 5764 5762 5758 5754 5749 5745 5741 5739 5737 5734 5732 5729 5726 5723 5720 5715 5712 5710 5711 5709 5706 5704 5701 5698 5695 5690 5687 5687 5684 5681 5678
5786 5785 5786 5785 5782 5781 5780 5776 5773 5770 5766 5764 5761 5758 5754 5750 5745 5741 5738 5736 5733 5730 5728 5725 5722 5720 5716 5710 5707 5705 5709 5705 5703 5699 5696 5690 5688 5683 5681 5681 5679 5674 5672
5778 5778 5777 5776 5774 5775 5774 5770 5767 5764 5763 5760 5757 5752 5748 5745 5741 5737 5733 5730 5728 5725 5722 5719 5717 5714 5711 5706 5702 5699 5702 5701 5698 5695 5692 5688 5679 5676 5674 5673 5672 5668 5665
5769 5770 5768 5767 5767 5768 5767 5763 5761 5760 5758 5754 5751 5746 5743 5740 5737 5731 5727 5724 5721 5719 5716 5713 5711 5709 5705 5701 5697 5693 5692 5691 5690 5688 5687 5682 5673 5669 5666 5665 5663 5660 5657
5761 5762 5761 5758 5758 5759 5759 5756 5754 5754 5751 5747 5743 5740 5737 5734 5731 5727 5722 5719 5716 5716 5713 5710 5707 5704 5702 5696 5691 5687 5685 5683 5682 5681 5676 5672 5667 5663 5661 5657 5655 5654 5655
5753 5754 5753 5751 5750 5751 5751 5749 5748 5747 5744 5740 5737 5734 5731 5727 5724 5721 5719 5716 5713 5711 5709 5706 5703 5700 5696 5693 5689 5684 5680 5676 5674 5673 5668 5663 5660 5658 5656 5653 5651 5651 5650
5745 5746 5744 5743 5743 5744 5743 5742 5741 5739 5736 5734 5731 5728 5725 5722 5718 5715 5713 5711 5708 5706 5701 5700 5698 5694 5691 5686 5681 5679 5677 5674 5671 5667 5664 5662 5659 5655 5653 5652 5649 5647 5644
5737 5736 5736 5736 5737 5737 5735 5735 5734 5733 5729 5727 5725 5723 5721 5716 5713 5709 5704 5698 5697 5693 5690 5688 5687 5686 5682 5676 5672 5669 5666 5663 5660 5659 5660 5657 5655 5652 5649 5646 5644 5641 5638